Time,TemperatureF,DewpointF,PressureIn,WindDirection,WindDirectionDegrees,WindSpeedMPH,WindSpeedGustMPH,Humidity,HourlyPrecipIn,Conditions,Clouds,dailyrainin,SoftwareType,DateUTC
2013-04-02 00:05:00,36.8,28.6,29.98,ESE,117,20.0,24.0,72,0.00,,---,0.00,VWS V14.00,2013-04-01 23:05:00,
2013-04-02 00:10:00,36.8,29.0,29.99,SE,124,18.0,20.0,73,0.00,,---,0.00,VWS V14.00,2013-04-01 23:10:00,
2013-04-02 00:15:00,36.6,28.4,29.99,ESE,116,18.0,18.0,72,0.00,,---,0.00,VWS V14.00,2013-04-01 23:15:00,
2013-04-02 00:20:00,36.6,28.4,29.99,SE,139,13.0,14.0,72,0.00,,---,0.00,VWS V14.00,2013-04-01 23:20:00,
2013-04-02 00:25:00,36.5,29.7,29.99,ESE,119,13.0,22.0,76,0.00,,---,0.00,VWS V14.00,2013-04-01 23:25:00,
2013-04-02 00:31:00,36.5,28.7,29.99,ESE,117,22.0,22.0,73,0.00,,---,0.00,VWS V14.00,2013-04-01 23:31:00,
2013-04-02 00:36:00,36.5,29.0,30.00,ESE,122,23.0,25.0,74,0.00,,---,0.00,VWS V14.00,2013-04-01 23:36:00,
2013-04-02 00:41:00,36.4,28.9,30.00,ESE,105,18.0,22.0,74,0.00,,---,0.00,VWS V14.00,2013-04-01 23:41:00,
2013-04-02 00:47:00,36.3,28.8,30.00,ESE,120,17.0,21.0,74,0.00,,---,0.00,VWS V14.00,2013-04-01 23:47:00,
2013-04-02 00:52:00,36.2,28.7,30.00,ESE,114,18.0,22.0,74,0.00,,---,0.00,VWS V14.00,2013-04-01 23:52:00,
2013-04-02 00:57:00,36.2,28.7,30.00,ESE,115,19.0,24.0,74,0.00,,---,0.00,VWS V14.00,2013-04-01 23:57:00,
2013-04-02 01:02:00,36.2,29.0,30.00,SE,136,8.0,16.0,75,0.00,,---,0.00,VWS V14.00,2013-04-02 00:02:00,
2013-04-02 01:07:00,36.2,29.0,30.00,SE,128,7.0,18.0,75,0.00,,---,0.00,VWS V14.00,2013-04-02 00:07:00,
2013-04-02 01:12:00,36.2,29.4,30.00,ESE,105,23.0,23.0,76,0.00,,---,0.00,VWS V14.00,2013-04-02 00:12:00,
2013-04-02 01:17:00,36.1,29.0,30.00,SE,124,19.0,21.0,75,0.00,,---,0.00,VWS V14.00,2013-04-02 00:17:00,
2013-04-02 01:22:00,36.1,29.3,30.00,ESE,123,13.0,19.0,76,0.00,,---,0.00,VWS V14.00,2013-04-02 00:22:00,
2013-04-02 01:27:00,36.0,28.9,30.00,ESE,119,22.0,22.0,75,0.00,,---,0.00,VWS V14.00,2013-04-02 00:27:00,
2013-04-02 01:32:00,36.0,29.2,30.00,ESE,103,14.0,17.0,76,0.00,,---,0.00,VWS V14.00,2013-04-02 00:32:00,
2013-04-02 01:37:00,35.9,28.8,30.00,ESE,118,18.0,23.0,75,0.00,,---,0.00,VWS V14.00,2013-04-02 00:37:00,
2013-04-02 01:42:00,35.9,29.1,30.01,SE,128,15.0,23.0,76,0.00,,---,0.00,VWS V14.00,2013-04-02 00:42:00,
2013-04-02 01:47:00,35.8,29.0,30.01,ESE,109,16.0,22.0,76,0.00,,---,0.00,VWS V14.00,2013-04-02 00:47:00,
2013-04-02 01:52:00,35.7,28.9,30.01,ESE,106,22.0,25.0,76,0.00,,---,0.00,VWS V14.00,2013-04-02 00:52:00,
2013-04-02 01:57:00,35.7,28.9,30.01,ESE,109,16.0,21.0,76,0.00,,---,0.00,VWS V14.00,2013-04-02 00:57:00,
2013-04-02 02:02:00,35.8,29.3,30.01,SE,128,17.0,22.0,77,0.00,,---,0.00,VWS V14.00,2013-04-02 01:02:00,
2013-04-02 02:07:00,35.8,29.3,30.01,SE,131,11.0,20.0,77,0.00,,---,0.00,VWS V14.00,2013-04-02 01:07:00,
2013-04-02 02:12:00,35.6,29.1,30.01,ESE,123,13.0,18.0,77,0.00,,---,0.00,VWS V14.00,2013-04-02 01:12:00,
2013-04-02 02:17:00,35.6,29.1,30.01,ESE,117,18.0,23.0,77,0.00,,---,0.00,VWS V14.00,2013-04-02 01:17:00,
2013-04-02 02:22:00,35.6,29.1,30.01,ESE,112,12.0,18.0,77,0.00,,---,0.00,VWS V14.00,2013-04-02 01:22:00,
2013-04-02 02:27:00,35.7,29.2,30.01,SE,125,11.0,18.0,77,0.00,,---,0.00,VWS V14.00,2013-04-02 01:27:00,
2013-04-02 02:32:00,35.7,29.2,30.01,ESE,108,16.0,17.0,77,0.00,,---,0.00,VWS V14.00,2013-04-02 01:32:00,
2013-04-02 02:37:00,35.7,29.2,30.01,ESE,119,17.0,17.0,77,0.00,,---,0.00,VWS V14.00,2013-04-02 01:37:00,
2013-04-02 02:42:00,35.7,29.2,30.01,ESE,122,11.0,13.0,77,0.00,,---,0.00,VWS V14.00,2013-04-02 01:42:00,
2013-04-02 02:47:00,35.7,29.5,30.01,ESE,103,13.0,13.0,78,0.00,,---,0.00,VWS V14.00,2013-04-02 01:47:00,
2013-04-02 02:52:00,35.8,29.3,30.01,ESE,118,13.0,18.0,77,0.00,,---,0.00,VWS V14.00,2013-04-02 01:52:00,
2013-04-02 02:57:00,35.8,29.6,30.01,ESE,118,14.0,18.0,78,0.00,,---,0.00,VWS V14.00,2013-04-02 01:57:00,
2013-04-02 03:02:00,35.7,29.5,30.01,ESE,109,11.0,24.0,78,0.00,,---,0.00,VWS V14.00,2013-04-02 02:02:00,
2013-04-02 03:07:00,35.6,29.4,30.01,ESE,107,18.0,20.0,78,0.00,,---,0.00,VWS V14.00,2013-04-02 02:07:00,
2013-04-02 03:12:00,35.6,29.4,30.01,ESE,121,15.0,18.0,78,0.00,,---,0.00,VWS V14.00,2013-04-02 02:12:00,
2013-04-02 03:17:00,35.5,29.3,30.01,ESE,111,6.0,15.0,78,0.00,,---,0.00,VWS V14.00,2013-04-02 02:17:00,
2013-04-02 03:22:00,35.5,29.3,30.01,SE,136,18.0,18.0,78,0.00,,---,0.00,VWS V14.00,2013-04-02 02:22:00,
2013-04-02 03:27:00,35.5,29.3,30.01,ESE,108,7.0,16.0,78,0.00,,---,0.00,VWS V14.00,2013-04-02 02:27:00,
2013-04-02 03:32:00,35.4,29.2,30.01,SE,125,15.0,17.0,78,0.00,,---,0.00,VWS V14.00,2013-04-02 02:32:00,
2013-04-02 03:38:00,35.4,29.2,30.01,East,89,11.0,13.0,78,0.00,,---,0.00,VWS V14.00,2013-04-02 02:38:00,
2013-04-02 03:43:00,35.4,29.5,30.01,ESE,123,10.0,13.0,79,0.00,,---,0.00,VWS V14.00,2013-04-02 02:43:00,
2013-04-02 03:48:00,35.4,29.2,30.01,ESE,117,16.0,16.0,78,0.00,,---,0.00,VWS V14.00,2013-04-02 02:48:00,
2013-04-02 03:53:00,35.4,29.5,30.01,ESE,108,12.0,13.0,79,0.00,,---,0.00,VWS V14.00,2013-04-02 02:53:00,
2013-04-02 03:58:00,35.3,29.1,30.02,ESE,111,11.0,11.0,78,0.00,,---,0.00,VWS V14.00,2013-04-02 02:58:00,
2013-04-02 04:03:00,35.2,29.0,30.02,SE,126,14.0,15.0,78,0.00,,---,0.00,VWS V14.00,2013-04-02 03:03:00,
2013-04-02 04:08:00,35.1,28.9,30.02,SSE,151,9.0,12.0,78,0.00,,---,0.00,VWS V14.00,2013-04-02 03:08:00,
2013-04-02 04:13:00,34.9,28.8,30.02,SE,144,12.0,15.0,78,0.00,,---,0.00,VWS V14.00,2013-04-02 03:13:00,
2013-04-02 04:18:00,34.9,28.8,30.01,SE,134,10.0,13.0,78,0.00,,---,0.00,VWS V14.00,2013-04-02 03:18:00,
2013-04-02 04:23:00,34.8,28.6,30.01,ESE,115,9.0,16.0,78,0.00,,---,0.00,VWS V14.00,2013-04-02 03:23:00,
2013-04-02 04:28:00,34.9,28.8,30.02,ESE,102,12.0,15.0,78,0.00,,---,0.00,VWS V14.00,2013-04-02 03:28:00,
2013-04-02 04:34:00,34.9,28.8,30.02,ESE,111,9.0,13.0,78,0.00,,---,0.00,VWS V14.00,2013-04-02 03:34:00,
2013-04-02 04:39:00,35.0,29.2,30.02,ESE,117,11.0,14.0,79,0.00,,---,0.00,VWS V14.00,2013-04-02 03:39:00,
2013-04-02 04:44:00,35.0,29.2,30.02,ESE,114,11.0,11.0,79,0.00,,---,0.00,VWS V14.00,2013-04-02 03:44:00,
2013-04-02 04:49:00,34.9,28.8,30.02,ESE,107,9.0,12.0,78,0.00,,---,0.00,VWS V14.00,2013-04-02 03:49:00,
2013-04-02 04:54:00,34.8,29.0,30.02,ESE,115,11.0,14.0,79,0.00,,---,0.00,VWS V14.00,2013-04-02 03:54:00,
2013-04-02 04:59:00,34.7,28.9,30.02,ESE,115,9.0,11.0,79,0.00,,---,0.00,VWS V14.00,2013-04-02 03:59:00,
2013-04-02 05:00:00,34.6,28.5,30.02,ESE,117,10.0,10.0,78,0.00,,---,0.00,VWS V14.00,2013-04-02 04:00:00,
2013-04-02 05:02:00,34.6,28.5,30.02,ESE,116,8.0,11.0,78,0.00,,---,0.00,VWS V14.00,2013-04-02 04:02:00,
2013-04-02 05:04:00,34.6,28.5,30.02,ESE,120,10.0,12.0,78,0.00,,---,0.00,VWS V14.00,2013-04-02 04:04:00,
2013-04-02 05:09:00,34.6,28.8,30.02,SE,130,13.0,14.0,79,0.00,,---,0.00,VWS V14.00,2013-04-02 04:09:00,
2013-04-02 05:15:00,34.5,28.7,30.02,ESE,119,9.0,12.0,79,0.00,,---,0.00,VWS V14.00,2013-04-02 04:15:00,
2013-04-02 05:20:00,34.5,28.7,30.03,ESE,103,6.0,10.0,79,0.00,,---,0.00,VWS V14.00,2013-04-02 04:20:00,
2013-04-02 05:25:00,34.6,28.8,30.03,ESE,115,5.0,9.0,79,0.00,,---,0.00,VWS V14.00,2013-04-02 04:25:00,
2013-04-02 05:30:00,34.6,28.8,30.03,ESE,103,13.0,14.0,79,0.00,,---,0.00,VWS V14.00,2013-04-02 04:30:00,
2013-04-02 05:35:00,34.7,28.9,30.03,ESE,119,10.0,15.0,79,0.00,,---,0.00,VWS V14.00,2013-04-02 04:35:00,
2013-04-02 05:40:00,34.8,29.3,30.03,ESE,105,12.0,14.0,80,0.00,,---,0.00,VWS V14.00,2013-04-02 04:40:00,
2013-04-02 05:45:00,34.8,29.3,30.03,ESE,119,12.0,12.0,80,0.00,,---,0.00,VWS V14.00,2013-04-02 04:45:00,
2013-04-02 05:50:00,34.7,29.2,30.03,ESE,109,10.0,14.0,80,0.00,,---,0.00,VWS V14.00,2013-04-02 04:50:00,
2013-04-02 05:55:00,34.6,29.1,30.03,ESE,117,11.0,14.0,80,0.00,,---,0.00,VWS V14.00,2013-04-02 04:55:00,
2013-04-02 06:00:00,34.5,29.0,30.03,ESE,105,15.0,16.0,80,0.00,,---,0.00,VWS V14.00,2013-04-02 05:00:00,
2013-04-02 06:05:00,34.4,28.9,30.03,ESE,107,13.0,13.0,80,0.00,,---,0.00,VWS V14.00,2013-04-02 05:05:00,
2013-04-02 06:10:00,34.3,28.8,30.03,ESE,109,5.0,10.0,80,0.00,,---,0.00,VWS V14.00,2013-04-02 05:10:00,
2013-04-02 06:15:00,34.1,28.6,30.04,ESE,109,12.0,12.0,80,0.00,,---,0.00,VWS V14.00,2013-04-02 05:15:00,
2013-04-02 06:20:00,34.1,28.6,30.04,ESE,111,6.0,9.0,80,0.00,,---,0.00,VWS V14.00,2013-04-02 05:20:00,
2013-04-02 06:25:00,34.0,28.5,30.04,ESE,117,9.0,11.0,80,0.00,,---,0.00,VWS V14.00,2013-04-02 05:25:00,
2013-04-02 06:30:00,34.0,28.5,30.04,SE,126,9.0,10.0,80,0.00,,---,0.00,VWS V14.00,2013-04-02 05:30:00,
2013-04-02 06:35:00,34.1,28.6,30.04,ESE,102,9.0,9.0,80,0.00,,---,0.00,VWS V14.00,2013-04-02 05:35:00,
2013-04-02 06:40:00,34.1,28.6,30.04,ESE,113,14.0,15.0,80,0.00,,---,0.00,VWS V14.00,2013-04-02 05:40:00,
2013-04-02 06:45:00,34.1,28.6,30.04,SE,136,10.0,12.0,80,0.00,,---,0.00,VWS V14.00,2013-04-02 05:45:00,
2013-04-02 06:50:00,34.1,28.6,30.04,ESE,105,10.0,10.0,80,0.00,,---,0.00,VWS V14.00,2013-04-02 05:50:00,
2013-04-02 06:55:00,34.0,28.5,30.04,ESE,119,9.0,10.0,80,0.00,,---,0.00,VWS V14.00,2013-04-02 05:55:00,
2013-04-02 07:00:00,34.0,28.5,30.04,ESE,107,6.0,8.0,80,0.00,,---,0.00,VWS V14.00,2013-04-02 06:00:00,
2013-04-02 07:05:00,33.9,28.4,30.05,SE,124,10.0,14.0,80,0.00,,---,0.00,VWS V14.00,2013-04-02 06:05:00,
2013-04-02 07:10:00,34.0,28.5,30.04,ESE,103,6.0,9.0,80,0.00,,---,0.00,VWS V14.00,2013-04-02 06:10:00,
2013-04-02 07:15:00,34.1,28.6,30.04,East,91,8.0,10.0,80,0.00,,---,0.00,VWS V14.00,2013-04-02 06:15:00,
2013-04-02 07:20:00,34.3,28.8,30.04,ESE,119,12.0,12.0,80,0.00,,---,0.00,VWS V14.00,2013-04-02 06:20:00,
2013-04-02 07:25:00,34.4,28.6,30.05,East,100,10.0,13.0,79,0.00,,---,0.00,VWS V14.00,2013-04-02 06:25:00,
2013-04-02 07:30:00,34.6,28.8,30.05,ESE,111,13.0,13.0,79,0.00,,---,0.00,VWS V14.00,2013-04-02 06:30:00,
2013-04-02 07:35:00,34.6,28.5,30.05,ESE,113,5.0,7.0,78,0.00,,---,0.00,VWS V14.00,2013-04-02 06:35:00,
2013-04-02 07:40:00,34.7,28.5,30.05,ESE,105,9.0,10.0,78,0.00,,---,0.00,VWS V14.00,2013-04-02 06:40:00,
2013-04-02 07:45:00,34.8,28.3,30.05,ESE,120,6.0,9.0,77,0.00,,---,0.00,VWS V14.00,2013-04-02 06:45:00,
2013-04-02 07:50:00,34.9,28.1,30.05,SSE,147,9.0,12.0,76,0.00,,---,0.00,VWS V14.00,2013-04-02 06:50:00,
2013-04-02 07:55:00,35.1,28.3,30.05,SE,130,12.0,14.0,76,0.00,,---,0.00,VWS V14.00,2013-04-02 06:55:00,
2013-04-02 08:00:00,35.3,28.8,30.05,ESE,115,12.0,14.0,77,0.00,,---,0.00,VWS V14.00,2013-04-02 07:00:00,
2013-04-02 08:05:00,35.4,28.9,30.06,ESE,110,12.0,13.0,77,0.00,,---,0.00,VWS V14.00,2013-04-02 07:05:00,
2013-04-02 08:10:00,35.5,28.7,30.06,ESE,123,10.0,12.0,76,0.00,,---,0.00,VWS V14.00,2013-04-02 07:10:00,
2013-04-02 08:15:00,35.6,28.8,30.06,SSE,151,7.0,14.0,76,0.00,,---,0.00,VWS V14.00,2013-04-02 07:15:00,
2013-04-02 08:20:00,35.8,29.0,30.06,ESE,114,9.0,11.0,76,0.00,,---,0.00,VWS V14.00,2013-04-02 07:20:00,
2013-04-02 08:25:00,35.9,29.1,30.07,ESE,115,7.0,12.0,76,0.00,,---,0.00,VWS V14.00,2013-04-02 07:25:00,
2013-04-02 08:30:00,36.0,29.2,30.07,SE,129,14.0,15.0,76,0.00,,---,0.00,VWS V14.00,2013-04-02 07:30:00,
2013-04-02 08:35:00,36.0,29.2,30.07,ESE,102,10.0,10.0,76,0.00,,---,0.00,VWS V14.00,2013-04-02 07:35:00,
2013-04-02 08:40:00,36.1,29.3,30.07,SE,146,15.0,16.0,76,0.00,,---,0.00,VWS V14.00,2013-04-02 07:40:00,
2013-04-02 08:45:00,36.2,29.4,30.08,ESE,121,10.0,13.0,76,0.00,,---,0.00,VWS V14.00,2013-04-02 07:45:00,
2013-04-02 08:50:00,36.5,29.7,30.08,SE,130,11.0,14.0,76,0.00,,---,0.00,VWS V14.00,2013-04-02 07:50:00,
2013-04-02 08:55:00,36.5,29.0,30.08,ESE,111,8.0,14.0,74,0.00,,---,0.00,VWS V14.00,2013-04-02 07:55:00,
2013-04-02 09:00:00,36.6,29.4,30.08,SE,125,12.0,13.0,75,0.00,,---,0.00,VWS V14.00,2013-04-02 08:00:00,
2013-04-02 09:05:00,36.5,29.3,30.08,SE,142,12.0,12.0,75,0.00,,---,0.00,VWS V14.00,2013-04-02 08:05:00,
2013-04-02 09:11:00,36.8,29.3,30.08,SE,133,12.0,13.0,74,0.00,,---,0.00,VWS V14.00,2013-04-02 08:11:00,
2013-04-02 09:17:00,37.0,28.8,30.09,SE,135,14.0,16.0,72,0.00,,---,0.00,VWS V14.00,2013-04-02 08:17:00,
2013-04-02 09:22:00,37.0,28.5,30.09,East,97,13.0,16.0,71,0.00,,---,0.00,VWS V14.00,2013-04-02 08:22:00,
2013-04-02 09:27:00,37.0,28.1,30.09,SE,130,11.0,13.0,70,0.00,,---,0.00,VWS V14.00,2013-04-02 08:27:00,
2013-04-02 09:32:00,36.9,28.0,30.09,SE,124,9.0,10.0,70,0.00,,---,0.00,VWS V14.00,2013-04-02 08:32:00,
2013-04-02 09:37:00,37.1,28.2,30.09,ESE,113,6.0,9.0,70,0.00,,---,0.00,VWS V14.00,2013-04-02 08:37:00,
2013-04-02 09:42:00,37.5,29.3,30.09,ESE,121,9.0,9.0,72,0.00,,---,0.00,VWS V14.00,2013-04-02 08:42:00,
2013-04-02 09:47:00,37.6,29.1,30.09,SSE,162,6.0,13.0,71,0.00,,---,0.00,VWS V14.00,2013-04-02 08:47:00,
2013-04-02 09:52:00,37.5,29.6,30.09,ESE,116,3.0,5.0,73,0.00,,---,0.00,VWS V14.00,2013-04-02 08:52:00,
2013-04-02 09:57:00,37.7,29.5,30.09,SSE,148,12.0,12.0,72,0.00,,---,0.00,VWS V14.00,2013-04-02 08:57:00,
2013-04-02 10:02:00,37.9,30.0,30.10,East,88,7.0,11.0,73,0.00,,---,0.00,VWS V14.00,2013-04-02 09:02:00,
2013-04-02 10:07:00,38.0,29.1,30.10,ESE,117,8.0,12.0,70,0.00,,---,0.00,VWS V14.00,2013-04-02 09:07:00,
2013-04-02 10:12:00,38.0,28.0,30.10,SE,132,6.0,12.0,67,0.00,,---,0.00,VWS V14.00,2013-04-02 09:12:00,
2013-04-02 10:18:00,37.9,27.9,30.10,SE,128,3.0,7.0,67,0.00,,---,0.00,VWS V14.00,2013-04-02 09:18:00,
2013-04-02 10:23:00,37.9,27.9,30.10,SE,134,8.0,12.0,67,0.00,,---,0.00,VWS V14.00,2013-04-02 09:23:00,
2013-04-02 10:28:00,37.9,27.9,30.10,SE,132,5.0,9.0,67,0.00,,---,0.00,VWS V14.00,2013-04-02 09:28:00,
2013-04-02 10:33:00,38.1,28.8,30.10,ESE,111,12.0,15.0,69,0.00,,---,0.00,VWS V14.00,2013-04-02 09:33:00,
2013-04-02 10:38:00,38.3,29.0,30.10,SE,128,7.0,10.0,69,0.00,,---,0.00,VWS V14.00,2013-04-02 09:38:00,
2013-04-02 10:44:00,38.5,28.9,30.10,ESE,114,4.0,9.0,68,0.00,,---,0.00,VWS V14.00,2013-04-02 09:44:00,
2013-04-02 10:49:00,38.4,28.4,30.11,SE,146,12.0,14.0,67,0.00,,---,0.00,VWS V14.00,2013-04-02 09:49:00,
2013-04-02 10:54:00,38.3,28.7,30.10,ESE,111,5.0,13.0,68,0.00,,---,0.00,VWS V14.00,2013-04-02 09:54:00,
2013-04-02 10:59:00,38.2,28.9,30.11,ESE,111,11.0,13.0,69,0.00,,---,0.00,VWS V14.00,2013-04-02 09:59:00,
2013-04-02 11:04:00,38.8,29.9,30.11,ESE,121,7.0,13.0,70,0.00,,---,0.00,VWS V14.00,2013-04-02 10:04:00,
2013-04-02 11:09:00,39.1,29.8,30.11,SE,133,8.0,10.0,69,0.00,,---,0.00,VWS V14.00,2013-04-02 10:09:00,
2013-04-02 11:14:00,38.8,29.2,30.11,SSE,154,7.0,7.0,68,0.00,,---,0.00,VWS V14.00,2013-04-02 10:14:00,
2013-04-02 11:20:00,38.4,30.2,30.11,SE,128,6.0,10.0,72,0.00,,---,0.00,VWS V14.00,2013-04-02 10:20:00,
2013-04-02 11:25:00,38.5,31.0,30.11,SE,138,14.0,14.0,74,0.00,,---,0.00,VWS V14.00,2013-04-02 10:25:00,
2013-04-02 11:30:00,38.0,30.1,30.11,SE,126,6.0,13.0,73,0.00,,---,0.00,VWS V14.00,2013-04-02 10:30:00,
2013-04-02 11:35:00,38.0,31.1,30.11,SE,128,13.0,15.0,76,0.00,,---,0.00,VWS V14.00,2013-04-02 10:35:00,
2013-04-02 11:40:00,38.1,31.2,30.11,SE,136,12.0,12.0,76,0.00,,---,0.00,VWS V14.00,2013-04-02 10:40:00,
2013-04-02 11:45:00,37.8,30.6,30.11,SSE,156,10.0,12.0,75,0.00,,---,0.00,VWS V14.00,2013-04-02 10:45:00,
2013-04-02 11:50:00,37.9,31.4,30.11,SE,145,5.0,7.0,77,0.00,,---,0.00,VWS V14.00,2013-04-02 10:50:00,
2013-04-02 11:56:00,38.4,32.5,30.11,SE,132,9.0,12.0,79,0.00,,---,0.00,VWS V14.00,2013-04-02 10:56:00,
2013-04-02 12:02:00,38.5,32.2,30.12,ESE,110,10.0,11.0,78,0.00,,---,0.00,VWS V14.00,2013-04-02 11:02:00,
2013-04-02 12:07:00,39.0,32.7,30.11,SE,139,11.0,15.0,78,0.00,,---,0.00,VWS V14.00,2013-04-02 11:07:00,
2013-04-02 12:12:00,39.1,32.8,30.12,SE,140,11.0,15.0,78,0.00,,---,0.00,VWS V14.00,2013-04-02 11:12:00,
2013-04-02 12:18:00,39.4,32.8,30.12,SE,127,12.0,13.0,77,0.00,,---,0.00,VWS V14.00,2013-04-02 11:18:00,
2013-04-02 12:23:00,39.4,32.8,30.12,ESE,118,15.0,15.0,77,0.00,,---,0.00,VWS V14.00,2013-04-02 11:23:00,
2013-04-02 12:28:00,39.4,32.5,30.11,SSE,147,11.0,17.0,76,0.00,,---,0.00,VWS V14.00,2013-04-02 11:28:00,
2013-04-02 12:33:00,39.6,33.3,30.12,ESE,120,10.0,12.0,78,0.00,,---,0.00,VWS V14.00,2013-04-02 11:33:00,
2013-04-02 12:38:00,39.6,32.7,30.12,ESE,105,16.0,17.0,76,0.00,,---,0.00,VWS V14.00,2013-04-02 11:38:00,
2013-04-02 12:43:00,39.8,32.9,30.12,ESE,123,6.0,16.0,76,0.00,,---,0.00,VWS V14.00,2013-04-02 11:43:00,
2013-04-02 12:48:00,40.4,33.5,30.12,ESE,123,7.0,13.0,76,0.00,,---,0.00,VWS V14.00,2013-04-02 11:48:00,
2013-04-02 12:53:00,40.6,33.3,30.12,ESE,116,18.0,20.0,75,0.00,,---,0.00,VWS V14.00,2013-04-02 11:53:00,
2013-04-02 12:59:00,40.2,32.9,30.12,ESE,120,13.0,13.0,75,0.00,,---,0.00,VWS V14.00,2013-04-02 11:59:00,
2013-04-02 13:04:00,39.9,33.0,30.12,ESE,113,14.0,17.0,76,0.00,,---,0.00,VWS V14.00,2013-04-02 12:04:00,
2013-04-02 13:09:00,40.0,33.4,30.13,ESE,123,9.0,15.0,77,0.00,,---,0.00,VWS V14.00,2013-04-02 12:09:00,
2013-04-02 13:14:00,39.9,33.3,30.13,ESE,119,13.0,16.0,77,0.00,,---,0.00,VWS V14.00,2013-04-02 12:14:00,
2013-04-02 13:19:00,40.4,33.1,30.13,SE,124,13.0,16.0,75,0.00,,---,0.00,VWS V14.00,2013-04-02 12:19:00,
2013-04-02 13:24:00,39.9,33.0,30.13,ESE,118,13.0,15.0,76,0.00,,---,0.00,VWS V14.00,2013-04-02 12:24:00,
2013-04-02 13:29:00,40.0,33.4,30.13,ESE,103,14.0,15.0,77,0.00,,---,0.00,VWS V14.00,2013-04-02 12:29:00,
2013-04-02 13:34:00,40.0,33.4,30.13,ESE,102,13.0,14.0,77,0.00,,---,0.00,VWS V14.00,2013-04-02 12:34:00,
2013-04-02 13:39:00,39.8,33.2,30.13,East,98,13.0,16.0,77,0.00,,---,0.00,VWS V14.00,2013-04-02 12:39:00,
2013-04-02 13:44:00,39.9,34.2,30.13,SE,135,16.0,19.0,80,0.00,,---,0.00,VWS V14.00,2013-04-02 12:44:00,
2013-04-02 13:49:00,39.6,34.0,30.13,ESE,104,11.0,12.0,80,0.00,,---,0.00,VWS V14.00,2013-04-02 12:49:00,
2013-04-02 13:54:00,39.8,34.5,30.13,ENE,66,11.0,16.0,81,0.00,,---,0.00,VWS V14.00,2013-04-02 12:54:00,
2013-04-02 13:59:00,39.9,34.5,30.13,ESE,105,6.0,11.0,81,0.00,,---,0.00,VWS V14.00,2013-04-02 12:59:00,
2013-04-02 14:04:00,40.5,35.1,30.13,ESE,103,14.0,16.0,81,0.00,,---,0.00,VWS V14.00,2013-04-02 13:04:00,
2013-04-02 14:09:00,40.2,34.8,30.13,East,80,12.0,14.0,81,0.00,,---,0.00,VWS V14.00,2013-04-02 13:09:00,
2013-04-02 14:14:00,39.9,34.2,30.13,East,86,19.0,19.0,80,0.00,,---,0.00,VWS V14.00,2013-04-02 13:14:00,
2013-04-02 14:19:00,40.0,34.7,30.13,East,100,9.0,14.0,81,0.00,,---,0.00,VWS V14.00,2013-04-02 13:19:00,
2013-04-02 14:24:00,40.0,33.7,30.13,ESE,111,13.0,15.0,78,0.00,,---,0.00,VWS V14.00,2013-04-02 13:24:00,
2013-04-02 14:29:00,40.1,33.8,30.13,ESE,108,14.0,16.0,78,0.00,,---,0.00,VWS V14.00,2013-04-02 13:29:00,
2013-04-02 14:34:00,40.1,34.1,30.13,ESE,113,17.0,17.0,79,0.00,,---,0.00,VWS V14.00,2013-04-02 13:34:00,
2013-04-02 14:40:00,40.2,33.9,30.13,ESE,109,18.0,18.0,78,0.00,,---,0.00,VWS V14.00,2013-04-02 13:40:00,
2013-04-02 14:45:00,40.2,34.2,30.13,ESE,121,12.0,15.0,79,0.00,,---,0.00,VWS V14.00,2013-04-02 13:45:00,
2013-04-02 14:50:00,40.1,33.8,30.13,East,96,13.0,17.0,78,0.00,,---,0.00,VWS V14.00,2013-04-02 13:50:00,
2013-04-02 14:55:00,40.2,33.9,30.13,ESE,113,12.0,13.0,78,0.00,,---,0.00,VWS V14.00,2013-04-02 13:55:00,
2013-04-02 15:00:00,40.9,34.6,30.13,East,96,17.0,19.0,78,0.00,,---,0.00,VWS V14.00,2013-04-02 14:00:00,
2013-04-02 15:05:00,41.0,35.0,30.13,ESE,119,14.0,14.0,79,0.00,,---,0.00,VWS V14.00,2013-04-02 14:05:00,
2013-04-02 15:10:00,41.0,35.0,30.13,East,88,11.0,12.0,79,0.00,,---,0.00,VWS V14.00,2013-04-02 14:10:00,
2013-04-02 15:15:00,40.6,34.6,30.13,ESE,102,17.0,17.0,79,0.00,,---,0.00,VWS V14.00,2013-04-02 14:15:00,
2013-04-02 15:20:00,40.4,34.7,30.13,ESE,107,20.0,20.0,80,0.00,,---,0.00,VWS V14.00,2013-04-02 14:20:00,
2013-04-02 15:25:00,40.3,34.6,30.13,East,98,19.0,20.0,80,0.00,,---,0.00,VWS V14.00,2013-04-02 14:25:00,
2013-04-02 15:30:00,40.5,34.8,30.13,East,92,11.0,19.0,80,0.00,,---,0.00,VWS V14.00,2013-04-02 14:30:00,
2013-04-02 15:35:00,40.7,35.0,30.13,ESE,106,17.0,21.0,80,0.00,,---,0.00,VWS V14.00,2013-04-02 14:35:00,
2013-04-02 15:40:00,40.9,35.2,30.13,ESE,106,10.0,15.0,80,0.00,,---,0.00,VWS V14.00,2013-04-02 14:40:00,
2013-04-02 15:45:00,40.3,34.3,30.13,East,96,14.0,14.0,79,0.00,,---,0.00,VWS V14.00,2013-04-02 14:45:00,
2013-04-02 15:50:00,40.1,34.1,30.13,ESE,107,16.0,17.0,79,0.00,,---,0.00,VWS V14.00,2013-04-02 14:50:00,
2013-04-02 15:55:00,40.4,34.4,30.13,ESE,108,12.0,16.0,79,0.00,,---,0.00,VWS V14.00,2013-04-02 14:55:00,
2013-04-02 16:00:00,40.6,34.6,30.13,East,90,17.0,19.0,79,0.00,,---,0.00,VWS V14.00,2013-04-02 15:00:00,
2013-04-02 16:06:00,40.8,34.8,30.13,ESE,105,23.0,23.0,79,0.00,,---,0.00,VWS V14.00,2013-04-02 15:06:00,
2013-04-02 16:12:00,40.6,34.3,30.12,ESE,102,15.0,18.0,78,0.00,,---,0.00,VWS V14.00,2013-04-02 15:12:00,
2013-04-02 16:18:00,40.7,34.4,30.13,ESE,112,15.0,19.0,78,0.00,,---,0.00,VWS V14.00,2013-04-02 15:18:00,
2013-04-02 16:23:00,40.5,33.5,30.13,East,93,12.0,16.0,76,0.00,,---,0.00,VWS V14.00,2013-04-02 15:23:00,
2013-04-02 16:28:00,40.7,34.1,30.13,ESE,109,18.0,21.0,77,0.00,,---,0.00,VWS V14.00,2013-04-02 15:28:00,
2013-04-02 16:35:00,40.9,33.6,30.13,East,94,10.0,14.0,75,0.00,,---,0.00,VWS V14.00,2013-04-02 15:35:00,
2013-04-02 16:40:00,40.7,33.4,30.13,ENE,74,11.0,14.0,75,0.00,,---,0.00,VWS V14.00,2013-04-02 15:40:00,
2013-04-02 16:46:00,40.7,33.1,30.13,ESE,104,16.0,18.0,74,0.00,,---,0.00,VWS V14.00,2013-04-02 15:46:00,
2013-04-02 16:51:00,40.7,32.7,30.13,East,88,15.0,21.0,73,0.00,,---,0.00,VWS V14.00,2013-04-02 15:51:00,
2013-04-02 16:56:00,40.6,32.0,30.13,East,85,12.0,13.0,71,0.00,,---,0.00,VWS V14.00,2013-04-02 15:56:00,
2013-04-02 17:02:00,40.9,32.2,30.13,East,99,11.0,13.0,71,0.00,,---,0.00,VWS V14.00,2013-04-02 16:02:00,
2013-04-02 17:08:00,40.7,31.3,30.13,ESE,108,19.0,19.0,69,0.00,,---,0.00,VWS V14.00,2013-04-02 16:08:00,
2013-04-02 17:13:00,40.5,31.5,30.13,ESE,109,7.0,17.0,70,0.00,,---,0.00,VWS V14.00,2013-04-02 16:13:00,
2013-04-02 17:20:00,40.4,30.7,30.13,ESE,107,17.0,17.0,68,0.00,,---,0.00,VWS V14.00,2013-04-02 16:20:00,
2013-04-02 17:25:00,40.5,31.1,30.13,ENE,77,17.0,23.0,69,0.00,,---,0.00,VWS V14.00,2013-04-02 16:25:00,
2013-04-02 17:30:00,40.4,31.4,30.13,ESE,115,12.0,12.0,70,0.00,,---,0.00,VWS V14.00,2013-04-02 16:30:00,
2013-04-02 17:36:00,40.5,31.9,30.13,ENE,76,15.0,17.0,71,0.00,,---,0.00,VWS V14.00,2013-04-02 16:36:00,
2013-04-02 17:41:00,40.3,32.0,30.13,East,93,8.0,10.0,72,0.00,,---,0.00,VWS V14.00,2013-04-02 16:41:00,
2013-04-02 17:46:00,40.3,31.3,30.14,ESE,113,6.0,17.0,70,0.00,,---,0.00,VWS V14.00,2013-04-02 16:46:00,
2013-04-02 17:52:00,40.4,31.8,30.13,East,87,14.0,17.0,71,0.00,,---,0.00,VWS V14.00,2013-04-02 16:52:00,
2013-04-02 17:57:00,40.4,32.4,30.13,East,94,11.0,11.0,73,0.00,,---,0.00,VWS V14.00,2013-04-02 16:57:00,
2013-04-02 18:03:00,40.4,32.1,30.13,East,99,15.0,15.0,72,0.00,,---,0.00,VWS V14.00,2013-04-02 17:03:00,
2013-04-02 18:08:00,40.2,31.6,30.14,East,94,15.0,16.0,71,0.00,,---,0.00,VWS V14.00,2013-04-02 17:08:00,
2013-04-02 18:14:00,40.2,31.6,30.14,ESE,105,11.0,14.0,71,0.00,,---,0.00,VWS V14.00,2013-04-02 17:14:00,
2013-04-02 18:19:00,40.3,32.0,30.14,East,101,10.0,11.0,72,0.00,,---,0.00,VWS V14.00,2013-04-02 17:19:00,
2013-04-02 18:24:00,40.2,32.2,30.14,ESE,103,9.0,12.0,73,0.00,,---,0.00,VWS V14.00,2013-04-02 17:24:00,
2013-04-02 18:30:00,40.1,31.8,30.14,East,84,9.0,13.0,72,0.00,,---,0.00,VWS V14.00,2013-04-02 17:30:00,
2013-04-02 18:35:00,40.1,32.2,30.14,East,90,17.0,17.0,73,0.00,,---,0.00,VWS V14.00,2013-04-02 17:35:00,
2013-04-02 18:40:00,40.0,32.1,30.14,East,92,13.0,14.0,73,0.00,,---,0.00,VWS V14.00,2013-04-02 17:40:00,
2013-04-02 18:45:00,39.8,31.5,30.14,ESE,121,13.0,17.0,72,0.00,,---,0.00,VWS V14.00,2013-04-02 17:45:00,
2013-04-02 18:50:00,39.7,31.4,30.14,ESE,103,15.0,16.0,72,0.00,,---,0.00,VWS V14.00,2013-04-02 17:50:00,
2013-04-02 18:55:00,39.7,31.1,30.14,East,98,13.0,13.0,71,0.00,,---,0.00,VWS V14.00,2013-04-02 17:55:00,
2013-04-02 19:00:00,39.7,30.7,30.14,ESE,107,10.0,17.0,70,0.00,,---,0.00,VWS V14.00,2013-04-02 18:00:00,
2013-04-02 19:05:00,39.7,30.4,30.15,ESE,113,8.0,16.0,69,0.00,,---,0.00,VWS V14.00,2013-04-02 18:05:00,
2013-04-02 19:11:00,39.7,30.7,30.15,ENE,77,12.0,12.0,70,0.00,,---,0.00,VWS V14.00,2013-04-02 18:11:00,
2013-04-02 19:17:00,39.7,31.1,30.15,ESE,115,8.0,12.0,71,0.00,,---,0.00,VWS V14.00,2013-04-02 18:17:00,
2013-04-02 19:22:00,39.7,31.1,30.15,East,99,10.0,15.0,71,0.00,,---,0.00,VWS V14.00,2013-04-02 18:22:00,
2013-04-02 19:27:00,39.8,31.5,30.15,SE,133,14.0,17.0,72,0.00,,---,0.00,VWS V14.00,2013-04-02 18:27:00,
2013-04-02 19:33:00,39.7,31.4,30.15,ESE,117,11.0,13.0,72,0.00,,---,0.00,VWS V14.00,2013-04-02 18:33:00,
2013-04-02 19:38:00,39.6,31.3,30.15,East,98,10.0,15.0,72,0.00,,---,0.00,VWS V14.00,2013-04-02 18:38:00,
2013-04-02 19:43:00,39.5,31.6,30.15,East,98,11.0,19.0,73,0.00,,---,0.00,VWS V14.00,2013-04-02 18:43:00,
2013-04-02 19:48:00,39.5,31.9,30.16,East,96,17.0,18.0,74,0.00,,---,0.00,VWS V14.00,2013-04-02 18:48:00,
2013-04-02 19:53:00,39.4,31.8,30.16,ESE,117,13.0,13.0,74,0.00,,---,0.00,VWS V14.00,2013-04-02 18:53:00,
2013-04-02 19:58:00,39.5,31.6,30.16,ESE,105,14.0,15.0,73,0.00,,---,0.00,VWS V14.00,2013-04-02 18:58:00,
2013-04-02 20:04:00,39.4,31.1,30.16,East,95,13.0,14.0,72,0.00,,---,0.00,VWS V14.00,2013-04-02 19:04:00,
2013-04-02 20:09:00,39.4,31.1,30.16,East,101,11.0,17.0,72,0.00,,---,0.00,VWS V14.00,2013-04-02 19:09:00,
2013-04-02 20:14:00,39.5,31.6,30.16,East,92,11.0,14.0,73,0.00,,---,0.00,VWS V14.00,2013-04-02 19:14:00,
2013-04-02 20:19:00,39.4,31.8,30.16,East,90,13.0,13.0,74,0.00,,---,0.00,VWS V14.00,2013-04-02 19:19:00,
2013-04-02 20:25:00,39.4,32.2,30.16,East,84,16.0,16.0,75,0.00,,---,0.00,VWS V14.00,2013-04-02 19:25:00,
2013-04-02 20:32:00,39.4,32.2,30.17,East,98,13.0,15.0,75,0.00,,---,0.00,VWS V14.00,2013-04-02 19:32:00,
2013-04-02 20:37:00,39.4,32.2,30.17,ESE,115,13.0,18.0,75,0.00,,---,0.00,VWS V14.00,2013-04-02 19:37:00,
2013-04-02 20:43:00,39.4,32.2,30.17,East,98,6.0,15.0,75,0.00,,---,0.00,VWS V14.00,2013-04-02 19:43:00,
2013-04-02 20:48:00,39.4,32.2,30.17,ESE,109,11.0,11.0,75,0.00,,---,0.00,VWS V14.00,2013-04-02 19:48:00,
2013-04-02 20:53:00,39.4,32.5,30.17,ESE,106,10.0,15.0,76,0.00,,---,0.00,VWS V14.00,2013-04-02 19:53:00,
2013-04-02 20:59:00,39.5,31.9,30.17,ESE,111,14.0,16.0,74,0.00,,---,0.00,VWS V14.00,2013-04-02 19:59:00,
2013-04-02 21:05:00,39.6,32.0,30.17,East,92,16.0,18.0,74,0.00,,---,0.00,VWS V14.00,2013-04-02 20:05:00,
2013-04-02 21:11:00,39.6,31.7,30.18,East,97,16.0,16.0,73,0.00,,---,0.00,VWS V14.00,2013-04-02 20:11:00,
2013-04-02 21:16:00,39.6,32.0,30.18,East,97,12.0,13.0,74,0.00,,---,0.00,VWS V14.00,2013-04-02 20:16:00,
2013-04-02 21:21:00,39.6,33.0,30.18,ESE,121,14.0,18.0,77,0.00,,---,0.00,VWS V14.00,2013-04-02 20:21:00,
2013-04-02 21:26:00,39.6,32.0,30.18,East,98,10.0,15.0,74,0.00,,---,0.00,VWS V14.00,2013-04-02 20:26:00,
2013-04-02 21:32:00,39.6,32.7,30.17,ENE,74,10.0,15.0,76,0.00,,---,0.00,VWS V14.00,2013-04-02 20:32:00,
2013-04-02 21:37:00,39.7,32.4,30.18,ESE,118,15.0,17.0,75,0.00,,---,0.00,VWS V14.00,2013-04-02 20:37:00,
2013-04-02 21:43:00,39.7,32.8,30.18,ESE,115,10.0,15.0,76,0.00,,---,0.00,VWS V14.00,2013-04-02 20:43:00,
2013-04-02 21:48:00,39.7,33.1,30.18,East,101,13.0,17.0,77,0.00,,---,0.00,VWS V14.00,2013-04-02 20:48:00,
2013-04-02 21:53:00,39.6,32.7,30.18,East,100,18.0,18.0,76,0.00,,---,0.00,VWS V14.00,2013-04-02 20:53:00,
2013-04-02 21:58:00,39.7,32.4,30.18,ESE,111,12.0,23.0,75,0.00,,---,0.00,VWS V14.00,2013-04-02 20:58:00,
2013-04-02 22:04:00,39.8,32.5,30.18,ESE,109,12.0,18.0,75,0.00,,---,0.00,VWS V14.00,2013-04-02 21:04:00,
2013-04-02 22:09:00,39.7,32.1,30.18,ESE,109,17.0,17.0,74,0.00,,---,0.00,VWS V14.00,2013-04-02 21:09:00,
2013-04-02 22:14:00,39.7,32.4,30.18,ESE,111,9.0,13.0,75,0.00,,---,0.00,VWS V14.00,2013-04-02 21:14:00,
2013-04-02 22:20:00,39.8,32.5,30.18,ESE,102,16.0,17.0,75,0.00,,---,0.00,VWS V14.00,2013-04-02 21:20:00,
2013-04-02 22:25:00,39.8,32.5,30.18,ESE,111,16.0,17.0,75,0.00,,---,0.00,VWS V14.00,2013-04-02 21:25:00,
2013-04-02 22:32:00,39.8,32.9,30.18,East,97,12.0,12.0,76,0.00,,---,0.00,VWS V14.00,2013-04-02 21:32:00,
2013-04-02 22:37:00,39.7,32.4,30.18,ESE,111,15.0,20.0,75,0.00,,---,0.00,VWS V14.00,2013-04-02 21:37:00,
2013-04-02 22:42:00,39.9,32.3,30.18,East,86,14.0,19.0,74,0.00,,---,0.00,VWS V14.00,2013-04-02 21:42:00,
2013-04-02 22:47:00,39.8,32.2,30.18,ESE,106,15.0,19.0,74,0.00,,---,0.00,VWS V14.00,2013-04-02 21:47:00,
2013-04-02 22:53:00,39.9,31.6,30.18,East,98,10.0,17.0,72,0.00,,---,0.00,VWS V14.00,2013-04-02 21:53:00,
2013-04-02 22:59:00,39.9,31.3,30.18,ESE,117,14.0,17.0,71,0.00,,---,0.00,VWS V14.00,2013-04-02 21:59:00,
2013-04-02 23:04:00,39.8,31.9,30.18,East,98,16.0,18.0,73,0.00,,---,0.00,VWS V14.00,2013-04-02 22:04:00,
2013-04-02 23:09:00,39.8,32.2,30.18,East,88,13.0,13.0,74,0.00,,---,0.00,VWS V14.00,2013-04-02 22:09:00,
2013-04-02 23:14:00,39.8,31.9,30.18,ESE,117,16.0,19.0,73,0.00,,---,0.00,VWS V14.00,2013-04-02 22:14:00,
2013-04-02 23:20:00,39.9,31.6,30.18,ESE,107,15.0,19.0,72,0.00,,---,0.00,VWS V14.00,2013-04-02 22:20:00,
2013-04-02 23:25:00,39.8,31.9,30.18,ESE,109,14.0,20.0,73,0.00,,---,0.00,VWS V14.00,2013-04-02 22:25:00,
2013-04-02 23:30:00,39.8,32.5,30.19,ESE,103,16.0,19.0,75,0.00,,---,0.00,VWS V14.00,2013-04-02 22:30:00,
2013-04-02 23:35:00,39.7,32.8,30.19,ESE,113,14.0,18.0,76,0.00,,---,0.00,VWS V14.00,2013-04-02 22:35:00,
2013-04-02 23:40:00,39.7,32.8,30.19,ESE,102,10.0,17.0,76,0.00,,---,0.00,VWS V14.00,2013-04-02 22:40:00,
2013-04-02 23:46:00,39.7,31.8,30.19,ESE,102,16.0,19.0,73,0.00,,---,0.00,VWS V14.00,2013-04-02 22:46:00,
2013-04-02 23:52:00,39.8,31.9,30.19,East,100,21.0,21.0,73,0.00,,---,0.00,VWS V14.00,2013-04-02 22:52:00,
2013-04-02 23:58:00,39.8,32.5,30.19,ESE,123,14.0,17.0,75,0.00,,---,0.00,VWS V14.00,2013-04-02 22:58:00,